OAL621 FMMI-FMCH

Flight info

Callsign OAL621
Flight time 1h 23m
Altitude 24000
Route KEKIN1E TN A401 GALBA GALBA1K
Aircraft C750/M-SBDE3FGHRWXY/S

Departure

Time 2026-05-05 18:33
Airport Ivato International Airport (FMMI)

Arrival

Time 2026-05-05 19:57
Airport Prince Said Ibrahim International Airport (FMCH)
Time Latitude Longitude Altitude Speed Heading
2026-05-05 17:38 -18.79821 47.47380 4175 ft 0 kts 277°
2026-05-05 18:30 -18.79821 47.47374 4175 ft 0 kts 277°
2026-05-05 18:30 -18.79807 47.47345 4176 ft 8 kts 310°
2026-05-05 18:30 -18.79775 47.47287 4178 ft 8 kts 283°
2026-05-05 18:30 -18.79764 47.47229 4179 ft 9 kts 280°
2026-05-05 18:31 -18.79754 47.47167 4181 ft 8 kts 280°
2026-05-05 18:31 -18.79734 47.47125 4182 ft 5 kts 342°
2026-05-05 18:31 -18.79690 47.47125 4182 ft 8 kts
2026-05-05 18:31 -18.79625 47.47132 4182 ft 9 kts
2026-05-05 18:32 -18.79584 47.47135 4182 ft 3 kts 72°
2026-05-05 18:32 -18.79585 47.47140 4182 ft 0 kts 93°
2026-05-05 18:33 -18.79617 47.47384 4177 ft 87 kts 98°
2026-05-05 18:33 -18.79749 47.48300 4173 ft 153 kts 98°
2026-05-05 18:33 -18.79920 47.49485 4523 ft 175 kts 98°
2026-05-05 18:33 -18.80115 47.50761 5244 ft 176 kts 99°
2026-05-05 18:34 -18.80312 47.52043 5916 ft 181 kts 98°
2026-05-05 18:34 -18.80522 47.53442 6208 ft 206 kts 99°
2026-05-05 18:34 -18.80724 47.55032 6475 ft 227 kts 93°
2026-05-05 18:34 -18.80299 47.56644 7084 ft 233 kts 61°
2026-05-05 18:35 -18.79124 47.57822 7740 ft 239 kts 30°
2026-05-05 18:35 -18.77491 47.58178 8392 ft 247 kts 357°
2026-05-05 18:35 -18.75897 47.57518 9089 ft 249 kts 322°
2026-05-05 18:35 -18.74670 47.56243 9813 ft 248 kts 311°
2026-05-05 18:36 -18.73514 47.54882 10305 ft 262 kts 310°
2026-05-05 18:36 -18.72227 47.53384 10626 ft 287 kts 311°
2026-05-05 18:36 -18.70805 47.51771 10882 ft 313 kts 312°
2026-05-05 18:36 -18.69262 47.50022 11064 ft 339 kts 312°
2026-05-05 18:37 -18.67601 47.48125 11184 ft 363 kts 311°
2026-05-05 18:37 -18.65872 47.46152 11857 ft 367 kts 312°
2026-05-05 18:37 -18.64129 47.44165 12521 ft 372 kts 312°
2026-05-05 18:37 -18.62357 47.42147 13151 ft 377 kts 312°
2026-05-05 18:38 -18.60560 47.40100 13787 ft 382 kts 312°
2026-05-05 18:38 -18.58768 47.38061 14354 ft 386 kts 312°
2026-05-05 18:38 -18.56937 47.35977 14981 ft 388 kts 312°
2026-05-05 18:38 -18.55090 47.33877 15591 ft 391 kts 312°
2026-05-05 18:39 -18.53237 47.31767 16224 ft 394 kts 312°
2026-05-05 18:39 -18.51367 47.29642 16854 ft 396 kts 312°
2026-05-05 18:39 -18.49485 47.27503 17500 ft 400 kts 311°
2026-05-05 18:39 -18.47584 47.25342 18198 ft 402 kts 311°
2026-05-05 18:40 -18.45666 47.23171 18817 ft 406 kts 312°
2026-05-05 18:40 -18.43548 47.21236 19351 ft 410 kts 321°
2026-05-05 18:40 -18.41248 47.19374 19987 ft 413 kts 321°
2026-05-05 18:40 -18.39006 47.17534 20559 ft 417 kts 320°
2026-05-05 18:41 -18.36730 47.15624 21165 ft 420 kts 320°
2026-05-05 18:41 -18.34424 47.13699 21750 ft 425 kts 320°
2026-05-05 18:41 -18.31979 47.11906 22269 ft 432 kts 329°
2026-05-05 18:41 -18.29201 47.10663 22871 ft 437 kts 340°
2026-05-05 18:42 -18.26256 47.09791 23435 ft 442 kts 343°
2026-05-05 18:42 -18.23279 47.08930 23971 ft 446 kts 343°
2026-05-05 18:42 -18.20275 47.08038 24474 ft 449 kts 342°
2026-05-05 18:42 -18.17260 47.07138 24989 ft 452 kts 342°
2026-05-05 18:43 -18.14254 47.06254 25483 ft 455 kts 342°
2026-05-05 18:43 -18.11186 47.05357 25975 ft 459 kts 342°
2026-05-05 18:43 -18.08090 47.04443 26501 ft 462 kts 342°
2026-05-05 18:43 -18.04983 47.03525 26998 ft 465 kts 342°
2026-05-05 18:44 -18.01859 47.02605 27509 ft 468 kts 342°
2026-05-05 18:44 -17.98706 47.01679 28012 ft 471 kts 342°
2026-05-05 18:44 -17.95529 47.00745 28515 ft 475 kts 342°
2026-05-05 18:44 -17.92380 46.99817 28983 ft 478 kts 341°
2026-05-05 18:45 -17.89158 46.98870 29458 ft 481 kts 341°
2026-05-05 18:45 -17.85919 46.97920 29906 ft 485 kts 341°
2026-05-05 18:45 -17.82660 46.96964 30325 ft 488 kts 341°
2026-05-05 18:45 -17.79385 46.96002 30756 ft 489 kts 341°
2026-05-05 18:46 -17.76098 46.95038 31142 ft 492 kts 341°
2026-05-05 18:46 -17.72810 46.94075 31721 ft 489 kts 342°
2026-05-05 18:46 -17.69532 46.93114 32244 ft 488 kts 342°
2026-05-05 18:46 -17.66267 46.92157 32758 ft 487 kts 342°
2026-05-05 18:47 -17.63006 46.91201 33290 ft 486 kts 342°
2026-05-05 18:47 -17.59789 46.90260 33802 ft 485 kts 342°
2026-05-05 18:47 -17.56498 46.89297 34308 ft 484 kts 342°
2026-05-05 18:47 -17.53305 46.88363 34777 ft 482 kts 342°
2026-05-05 18:48 -17.50067 46.87416 35306 ft 480 kts 342°
2026-05-05 18:48 -17.46853 46.86476 35785 ft 479 kts 342°
2026-05-05 18:48 -17.43639 46.85537 36277 ft 477 kts 342°
2026-05-05 18:48 -17.40445 46.84604 36779 ft 476 kts 342°
2026-05-05 18:49 -17.37260 46.83674 37285 ft 475 kts 342°
2026-05-05 18:49 -17.34117 46.82756 37796 ft 473 kts 342°
2026-05-05 18:49 -17.30907 46.81820 38333 ft 472 kts 342°
2026-05-05 18:49 -17.27780 46.80907 38807 ft 471 kts 342°
2026-05-05 18:50 -17.24629 46.79988 39272 ft 469 kts 342°
2026-05-05 18:50 -17.21493 46.79074 39728 ft 468 kts 342°
2026-05-05 18:50 -17.18354 46.78159 40168 ft 467 kts 342°
2026-05-05 18:50 -17.15221 46.77246 40604 ft 466 kts 342°
2026-05-05 18:51 -17.12097 46.76337 41051 ft 465 kts 342°
2026-05-05 18:51 -17.09018 46.75441 41483 ft 464 kts 342°
2026-05-05 18:51 -17.05898 46.74533 41901 ft 464 kts 342°
2026-05-05 18:51 -17.02789 46.73628 42312 ft 463 kts 342°
2026-05-05 18:52 -16.99679 46.72724 42704 ft 462 kts 342°
2026-05-05 18:52 -16.96583 46.71824 43030 ft 462 kts 342°
2026-05-05 18:52 -16.90311 46.69999 43002 ft 478 kts 342°
2026-05-05 18:53 -16.83795 46.68109 43008 ft 492 kts 342°
2026-05-05 18:53 -16.77117 46.66171 43012 ft 503 kts 342°
2026-05-05 18:54 -16.70338 46.64207 43001 ft 506 kts 342°
2026-05-05 18:54 -16.63579 46.62248 43002 ft 507 kts 342°
2026-05-05 18:55 -16.56784 46.60281 42999 ft 507 kts 342°
2026-05-05 18:55 -16.49993 46.58317 42995 ft 507 kts 342°
2026-05-05 18:56 -16.43193 46.56351 42984 ft 506 kts 342°
2026-05-05 18:56 -16.36396 46.54388 42985 ft 506 kts 342°
2026-05-05 18:57 -16.29645 46.52439 42987 ft 506 kts 342°
2026-05-05 18:57 -16.22853 46.50481 42985 ft 506 kts 342°
2026-05-05 18:58 -16.16065 46.48524 42978 ft 506 kts 342°
2026-05-05 18:58 -16.09275 46.46569 42989 ft 506 kts 342°
2026-05-05 18:59 -16.02480 46.44614 42989 ft 506 kts 342°
2026-05-05 18:59 -15.95697 46.42663 42984 ft 506 kts 342°
2026-05-05 19:00 -15.90048 46.41040 42974 ft 506 kts 342°
2026-05-05 19:00 -15.83255 46.39089 42967 ft 506 kts 342°
2026-05-05 19:01 -15.76464 46.37140 42966 ft 506 kts 342°
2026-05-05 19:01 -15.69722 46.35204 42961 ft 506 kts 342°
2026-05-05 19:02 -15.63351 46.32245 42956 ft 500 kts 325°
2026-05-05 19:02 -15.57910 46.27776 42966 ft 498 kts 316°
2026-05-05 19:03 -15.52561 46.23207 42978 ft 499 kts 321°
2026-05-05 19:03 -15.47016 46.18849 42968 ft 498 kts 319°
2026-05-05 19:04 -15.41646 46.14352 42983 ft 500 kts 320°
2026-05-05 19:04 -15.36126 46.09942 42983 ft 500 kts 320°
2026-05-05 19:05 -15.30677 46.05452 42980 ft 500 kts 320°
2026-05-05 19:05 -15.25221 46.01050 42977 ft 500 kts 320°
2026-05-05 19:06 -15.19765 45.96596 42970 ft 500 kts 320°
2026-05-05 19:06 -15.14292 45.92163 42961 ft 499 kts 320°
2026-05-05 19:07 -15.08829 45.87723 42964 ft 499 kts 320°
2026-05-05 19:07 -15.03351 45.83284 42963 ft 499 kts 320°
2026-05-05 19:08 -14.97883 45.78850 42963 ft 499 kts 320°
2026-05-05 19:08 -14.92408 45.74417 42964 ft 499 kts 320°
2026-05-05 19:09 -14.86975 45.70019 42967 ft 499 kts 320°
2026-05-05 19:09 -14.81493 45.65585 42965 ft 499 kts 320°
2026-05-05 19:10 -14.76018 45.61160 42964 ft 499 kts 320°
2026-05-05 19:10 -14.70544 45.56738 42966 ft 499 kts 320°
2026-05-05 19:11 -14.65096 45.52340 42969 ft 499 kts 320°
2026-05-05 19:11 -14.59619 45.47922 42971 ft 499 kts 320°
2026-05-05 19:12 -14.54136 45.43501 42965 ft 499 kts 320°
2026-05-05 19:12 -14.48661 45.39090 42967 ft 499 kts 320°
2026-05-05 19:13 -14.43214 45.34705 42971 ft 499 kts 320°
2026-05-05 19:13 -14.37725 45.30288 42974 ft 499 kts 320°
2026-05-05 19:14 -14.32240 45.25877 42971 ft 499 kts 320°
2026-05-05 19:14 -14.26791 45.21498 42973 ft 499 kts 320°
2026-05-05 19:15 -14.21309 45.17096 42968 ft 499 kts 320°
2026-05-05 19:15 -14.15827 45.12696 42971 ft 499 kts 320°
2026-05-05 19:16 -14.10343 45.08297 42967 ft 499 kts 320°
2026-05-05 19:16 -14.04848 45.03892 42968 ft 499 kts 320°
2026-05-05 19:17 -13.99397 44.99526 42972 ft 499 kts 320°
2026-05-05 19:17 -13.93905 44.95128 42969 ft 499 kts 320°
2026-05-05 19:18 -13.88414 44.90735 42972 ft 499 kts 320°
2026-05-05 19:18 -13.82959 44.86373 42972 ft 499 kts 320°
2026-05-05 19:19 -13.77475 44.81991 42972 ft 499 kts 320°
2026-05-05 19:19 -13.72106 44.77707 42966 ft 467 kts 320°
2026-05-05 19:20 -13.69601 44.75708 42964 ft 447 kts 320°
2026-05-05 19:20 -13.67180 44.73773 42965 ft 437 kts 320°
2026-05-05 19:20 -13.62437 44.69990 42965 ft 414 kts 320°
2026-05-05 19:21 -13.60237 44.68238 42963 ft 396 kts 320°
2026-05-05 19:21 -13.58097 44.66529 42964 ft 383 kts 320°
2026-05-05 19:21 -13.53889 44.63171 42975 ft 385 kts 320°
2026-05-05 19:22 -13.49712 44.59849 42971 ft 366 kts 320°
2026-05-05 19:22 -13.47735 44.58275 42963 ft 351 kts 320°
2026-05-05 19:22 -13.45843 44.56767 42960 ft 337 kts 319°
2026-05-05 19:23 -13.42193 44.53857 42973 ft 340 kts 319°
2026-05-05 19:23 -13.38439 44.50873 42982 ft 341 kts 320°
2026-05-05 19:24 -13.34558 44.48058 42980 ft 342 kts 325°
2026-05-05 19:24 -13.30537 44.45438 42987 ft 342 kts 324°
2026-05-05 19:25 -13.26551 44.42792 42810 ft 346 kts 324°
2026-05-05 19:25 -13.24513 44.41451 42334 ft 349 kts 325°
2026-05-05 19:25 -13.22473 44.40109 41868 ft 348 kts 325°
2026-05-05 19:26 -13.20434 44.38764 41411 ft 347 kts 325°
2026-05-05 19:26 -13.18398 44.37420 40956 ft 347 kts 325°
2026-05-05 19:26 -13.16369 44.36083 40500 ft 347 kts 325°
2026-05-05 19:26 -13.14338 44.34745 40039 ft 347 kts 325°
2026-05-05 19:27 -13.12304 44.33405 39590 ft 346 kts 325°
2026-05-05 19:27 -13.10274 44.32067 39128 ft 347 kts 325°
2026-05-05 19:27 -13.08270 44.30748 38676 ft 347 kts 326°
2026-05-05 19:27 -13.06239 44.29410 38171 ft 346 kts 326°
2026-05-05 19:28 -13.04216 44.28080 37714 ft 344 kts 325°
2026-05-05 19:28 -13.02207 44.26757 37264 ft 342 kts 325°
2026-05-05 19:28 -13.00208 44.25441 36816 ft 340 kts 325°
2026-05-05 19:28 -12.98221 44.24134 36370 ft 338 kts 325°
2026-05-05 19:29 -12.96246 44.22835 35926 ft 337 kts 325°
2026-05-05 19:29 -12.94275 44.21539 35483 ft 336 kts 325°
2026-05-05 19:29 -12.92313 44.20248 35042 ft 334 kts 325°
2026-05-05 19:29 -12.90359 44.18964 34601 ft 333 kts 325°
2026-05-05 19:30 -12.88409 44.17682 34174 ft 332 kts 325°
2026-05-05 19:30 -12.86476 44.16412 33831 ft 327 kts 325°
2026-05-05 19:30 -12.84591 44.15174 33398 ft 325 kts 325°
2026-05-05 19:30 -12.82697 44.13929 32974 ft 322 kts 325°
2026-05-05 19:31 -12.80814 44.12692 32558 ft 320 kts 325°
2026-05-05 19:31 -12.78942 44.11462 32143 ft 319 kts 325°
2026-05-05 19:31 -12.77082 44.10241 31737 ft 317 kts 325°
2026-05-05 19:31 -12.75228 44.09024 31315 ft 316 kts 325°
2026-05-05 19:32 -12.73377 44.07809 30907 ft 315 kts 325°
2026-05-05 19:32 -12.71529 44.06597 30495 ft 315 kts 325°
2026-05-05 19:32 -12.69679 44.05383 30083 ft 315 kts 325°
2026-05-05 19:32 -12.67861 44.04190 29635 ft 314 kts 326°
2026-05-05 19:33 -12.66024 44.02985 29219 ft 312 kts 325°
2026-05-05 19:33 -12.64200 44.01789 28809 ft 310 kts 326°
2026-05-05 19:33 -12.62387 44.00600 28410 ft 308 kts 326°
2026-05-05 19:33 -12.60590 43.99422 28005 ft 306 kts 326°
2026-05-05 19:34 -12.58798 43.98248 27607 ft 305 kts 326°
2026-05-05 19:34 -12.57014 43.97079 27204 ft 304 kts 326°
2026-05-05 19:34 -12.55235 43.95912 26805 ft 303 kts 327°
2026-05-05 19:35 -12.51717 43.93608 26020 ft 301 kts 327°
2026-05-05 19:35 -12.49953 43.92453 25626 ft 301 kts 327°
2026-05-05 19:35 -12.48191 43.91299 25229 ft 300 kts 328°
2026-05-05 19:35 -12.46431 43.90147 24834 ft 300 kts 328°
2026-05-05 19:36 -12.44669 43.88993 24442 ft 300 kts 328°
2026-05-05 19:36 -12.42903 43.87837 24040 ft 301 kts 328°
2026-05-05 19:36 -12.41137 43.86682 23639 ft 301 kts 329°
2026-05-05 19:36 -12.39398 43.85544 23203 ft 300 kts 329°
2026-05-05 19:37 -12.37646 43.84398 22802 ft 297 kts 329°
2026-05-05 19:37 -12.35908 43.83261 22411 ft 295 kts 329°
2026-05-05 19:37 -12.34186 43.82135 22030 ft 292 kts 329°
2026-05-05 19:37 -12.32474 43.81015 21642 ft 290 kts 329°
2026-05-05 19:38 -12.30776 43.79905 21258 ft 288 kts 329°
2026-05-05 19:38 -12.29092 43.78804 20880 ft 286 kts 329°
2026-05-05 19:38 -12.27419 43.77711 20501 ft 284 kts 329°
2026-05-05 19:38 -12.25777 43.76638 20131 ft 282 kts 329°
2026-05-05 19:39 -12.24126 43.75559 19770 ft 281 kts 330°
2026-05-05 19:39 -12.22502 43.74459 19393 ft 280 kts 325°
2026-05-05 19:39 -12.21304 43.72880 18981 ft 284 kts 297°
2026-05-05 19:39 -12.20575 43.71013 18668 ft 282 kts 292°
2026-05-05 19:40 -12.19908 43.69128 18307 ft 281 kts 292°
2026-05-05 19:40 -12.19228 43.67258 17899 ft 280 kts 292°
2026-05-05 19:40 -12.18544 43.65426 17526 ft 278 kts 292°
2026-05-05 19:40 -12.17861 43.63587 17160 ft 276 kts 292°
2026-05-05 19:41 -12.17188 43.61762 16792 ft 273 kts 292°
2026-05-05 19:41 -12.16520 43.59950 16440 ft 271 kts 292°
2026-05-05 19:41 -12.15854 43.58150 16081 ft 270 kts 292°
2026-05-05 19:41 -12.15192 43.56359 15728 ft 268 kts 292°
2026-05-05 19:42 -12.14535 43.54582 15382 ft 267 kts 292°
2026-05-05 19:42 -12.13879 43.52809 15027 ft 266 kts 292°
2026-05-05 19:42 -12.13227 43.51046 14682 ft 265 kts 292°
2026-05-05 19:42 -12.12584 43.49310 14339 ft 264 kts 292°
2026-05-05 19:43 -12.11936 43.47558 13995 ft 263 kts 292°
2026-05-05 19:43 -12.11287 43.45804 13629 ft 263 kts 291°
2026-05-05 19:43 -12.10642 43.44062 13266 ft 261 kts 291°
2026-05-05 19:43 -12.10001 43.42332 12923 ft 259 kts 291°
2026-05-05 19:44 -12.09364 43.40613 12578 ft 257 kts 291°
2026-05-05 19:44 -12.08732 43.38905 12242 ft 255 kts 291°
2026-05-05 19:44 -12.08105 43.37213 11909 ft 253 kts 291°
2026-05-05 19:44 -12.07492 43.35559 11584 ft 251 kts 291°
2026-05-05 19:45 -12.06873 43.33891 11249 ft 250 kts 291°
2026-05-05 19:45 -12.06260 43.32237 10926 ft 248 kts 291°
2026-05-05 19:45 -12.05650 43.30592 10601 ft 247 kts 291°
2026-05-05 19:45 -12.05043 43.28957 10272 ft 246 kts 291°
2026-05-05 19:46 -12.04439 43.27328 9951 ft 244 kts 290°
2026-05-05 19:46 -12.03839 43.25711 9634 ft 242 kts 290°
2026-05-05 19:46 -12.03245 43.24112 9312 ft 239 kts 290°
2026-05-05 19:46 -12.02658 43.22528 8996 ft 237 kts 290°
2026-05-05 19:47 -12.02081 43.20976 8702 ft 235 kts 290°
2026-05-05 19:47 -12.01493 43.19415 8380 ft 234 kts 292°
2026-05-05 19:47 -12.00518 43.18120 7987 ft 232 kts 326°
2026-05-05 19:47 -11.99035 43.17584 7737 ft 224 kts 358°
2026-05-05 19:48 -11.97529 43.17803 7548 ft 215 kts 15°
2026-05-05 19:48 -11.96092 43.18159 7347 ft 210 kts 16°
2026-05-05 19:48 -11.94677 43.18503 7121 ft 208 kts 15°
2026-05-05 19:48 -11.93273 43.18841 6887 ft 206 kts 15°
2026-05-05 19:49 -11.91876 43.19179 6654 ft 206 kts 15°
2026-05-05 19:49 -11.90956 43.19402 6500 ft 205 kts 16°
2026-05-05 19:49 -11.89104 43.19850 6187 ft 203 kts 16°
2026-05-05 19:49 -11.87731 43.20182 5956 ft 202 kts 15°
2026-05-05 19:50 -11.86826 43.20401 5809 ft 201 kts 16°
2026-05-05 19:50 -11.85029 43.20836 5510 ft 199 kts 17°
2026-05-05 19:50 -11.83685 43.21168 5290 ft 197 kts 19°
2026-05-05 19:50 -11.82856 43.21572 5127 ft 193 kts 33°
2026-05-05 19:51 -11.81630 43.22081 4921 ft 194 kts 17°
2026-05-05 19:51 -11.80312 43.22320 4728 ft 195 kts 13°
2026-05-05 19:51 -11.78977 43.22559 4514 ft 191 kts 12°
2026-05-05 19:51 -11.77270 43.22866 4257 ft 184 kts 13°
2026-05-05 19:52 -11.76426 43.23020 4193 ft 183 kts 12°
2026-05-05 19:52 -11.75162 43.23248 3963 ft 184 kts 12°
2026-05-05 19:52 -11.73901 43.23474 3727 ft 186 kts 11°
2026-05-05 19:52 -11.72652 43.23699 3510 ft 183 kts 12°
2026-05-05 19:53 -11.71427 43.23921 3251 ft 175 kts 12°
2026-05-05 19:53 -11.70215 43.24145 3034 ft 177 kts 12°
2026-05-05 19:53 -11.68999 43.24363 2811 ft 177 kts 12°
2026-05-05 19:53 -11.67778 43.24583 2585 ft 179 kts 12°
2026-05-05 19:54 -11.66599 43.24794 2365 ft 171 kts 12°
2026-05-05 19:54 -11.65438 43.25003 2143 ft 169 kts 12°
2026-05-05 19:54 -11.64278 43.25212 1928 ft 169 kts 12°
2026-05-05 19:54 -11.63130 43.25421 1724 ft 168 kts 12°
2026-05-05 19:55 -11.61973 43.25631 1506 ft 167 kts 12°
2026-05-05 19:55 -11.60849 43.25833 1321 ft 164 kts 12°
2026-05-05 19:55 -11.59725 43.26035 1127 ft 163 kts 11°
2026-05-05 19:55 -11.58638 43.26229 906 ft 150 kts 12°
2026-05-05 19:56 -11.57636 43.26414 698 ft 144 kts 12°
2026-05-05 19:56 -11.56671 43.26582 552 ft 140 kts 12°
2026-05-05 19:56 -11.55718 43.26751 353 ft 137 kts 12°
2026-05-05 19:56 -11.54781 43.26931 153 ft 136 kts 12°
2026-05-05 19:57 -11.53880 43.27097 76 ft 123 kts 12°
2026-05-05 19:57 -11.53273 43.27196 81 ft 30 kts 360°
2026-05-05 19:57 -11.53200 43.27236 81 ft 2 kts 166°
2026-05-05 19:57 -11.53285 43.27215 83 ft 14 kts 189°
2026-05-05 19:58 -11.53379 43.27203 81 ft 13 kts 190°
2026-05-05 19:58 -11.53474 43.27186 73 ft 15 kts 190°
2026-05-05 19:58 -11.53574 43.27160 73 ft 15 kts 198°
2026-05-05 19:58 -11.53656 43.27174 75 ft 11 kts 115°
2026-05-05 19:59 -11.53669 43.27243 75 ft 9 kts 99°
2026-05-05 19:59 -11.53683 43.27299 68 ft 7 kts 110°
2026-05-05 19:59 -11.53702 43.27343 75 ft 6 kts 116°
2026-05-05 19:59 -11.53706 43.27375 76 ft 3 kts 71°
2026-05-05 20:00 -11.53699 43.27391 36 ft 2 kts 66°